DW7889 Weather Reports


Display with metric or nautical units.
time (UTC)temp
F
wind
direction
speed
MPH
gust
MPH
rain 1hr
in
rain 24hr
in
rain mn
in
humidity
%
barometer
mb
20260504004543 55 23 4.0 8.0 0.00 0.00 0.00 73 1020.8
20260504004026 55 25 5.0 8.0 0.00 0.00 0.00 72 1020.8
20260504003530 55 53 5.0 8.0 0.00 0.00 0.00 72 1020.8
20260504003034 56 34 5.0 10.0 0.00 0.00 0.00 73 1020.9
20260504002537 55 12 6.0 10.0 0.00 0.00 0.00 73 1020.9
20260504002101 54 27 6.0 9.0 0.00 0.00 0.00 77 1021.0
20260504001603 53 46 2.0 4.0 0.00 0.00 0.00 82 1021.0
20260504001105 52 67 3.0 3.0 0.00 0.00 0.00 84 1021.1
20260504000529 52 112 1.0 2.0 0.00 0.00 0.00 84 1021.2
20260504000056 52 121 0.0 0.0 0.00 0.00 0.00 83 1021.2
20260503235538 52 121 0.0 1.0 0.00 0.00 0.00 84 1021.2
20260503235102 52 121 0.0 3.0 0.00 0.00 0.00 84 1021.2
20260503234525 52 141 1.0 3.0 0.00 0.00 0.00 84 1021.2
20260503234030 52 131 2.0 3.0 0.00 0.00 0.00 84 1021.3
20260503233538 52 135 1.0 2.0 0.00 0.00 0.00 84 1021.3
20260503233040 52 135 0.0 2.0 0.00 0.00 0.00 84 1021.3
20260503232544 52 135 1.0 2.0 0.00 0.00 0.00 84 1021.3
20260503232048 52 139 1.0 2.0 0.00 0.00 0.00 84 1021.3
20260503231529 52 139 1.0 2.0 0.00 0.00 0.00 84 1021.3
20260503231032 52 141 1.0 2.0 0.00 0.00 0.00 84 1021.3
20260503230536 52 141 0.0 1.0 0.00 0.00 0.00 83 1021.3
20260503230041 52 141 0.0 2.0 0.00 0.00 0.00 83 1021.3
20260503225545 52 141 1.0 2.0 0.00 0.00 0.00 83 1021.3
20260503225105 52 141 1.0 2.0 0.00 0.00 0.00 83 1021.3
20260503224604 53 144 1.0 2.0 0.00 0.00 0.00 82 1021.3
20260503224027 53 144 2.0 3.0 0.00 0.00 0.00 82 1021.4
20260503223533 53 143 2.0 3.0 0.00 0.00 0.00 82 1021.4
20260503223037 53 150 1.0 3.0 0.00 0.00 0.00 82 1021.4
20260503222544 53 138 0.0 2.0 0.00 0.00 0.00 82 1021.4
20260503222029 53 138 1.0 2.0 0.00 0.00 0.00 82 1021.3
20260503221531 53 120 1.0 2.0 0.00 0.00 0.00 82 1021.3
20260503221035 53 120 1.0 3.0 0.00 0.00 0.00 81 1021.1
20260503220538 53 123 2.0 3.0 0.00 0.00 0.00 81 1021.2
20260503220044 54 136 2.0 3.0 0.00 0.00 0.00 80 1021.3
20260503215547 54 141 1.0 3.0 0.00 0.00 0.00 80 1021.3
20260503215051 54 151 1.0 3.0 0.00 0.00 0.00 79 1021.4
20260503214551 54 150 2.0 3.0 0.00 0.00 0.00 79 1021.6
20260503214034 54 149 1.0 2.0 0.00 0.00 0.00 79 1021.7
20260503213539 54 139 0.0 0.0 0.00 0.00 0.00 80 1021.6
20260503213039 54 192 0.0 2.0 0.00 0.00 0.00 79 1021.6
20260503212536 54 197 1.0 2.0 0.00 0.00 0.00 79 1021.7
20260503212040 54 200 1.0 2.0 0.00 0.00 0.00 78 1021.6
20260503211544 55 220 1.0 3.0 0.00 0.00 0.00 78 1021.7
20260503211048 55 213 2.0 3.0 0.00 0.00 0.00 78 1021.8
20260503210529 55 243 2.0 4.0 0.00 0.00 0.00 77 1021.8
20260503210033 55 214 2.0 4.0 0.00 0.00 0.00 77 1021.8
20260503205533 55 250 2.0 4.0 0.00 0.00 0.00 77 1021.8
20260503205033 56 234 2.0 4.0 0.00 0.00 0.00 76 1021.8
20260503204535 56 217 2.0 4.0 0.00 0.00 0.00 76 1021.8
20260503204038 56 227 3.0 4.0 0.00 0.00 0.00 75 1021.8
20260503203542 57 201 2.0 5.0 0.00 0.00 0.00 74 1021.9
20260503203044 57 223 3.0 6.0 0.00 0.00 0.00 73 1021.9
20260503202528 57 219 4.0 6.0 0.00 0.00 0.00 73 1022.0
20260503202029 58 286 4.0 6.0 0.00 0.00 0.00 73 1022.1
20260503201554 58 195 4.0 6.0 0.00 0.00 0.00 71 1022.1
20260503201035 58 187 4.0 7.0 0.00 0.00 0.00 71 1022.1
20260503200537 58 192 5.0 8.0 0.00 0.00 0.00 70 1022.0
20260503200040 58 175 4.0 8.0 0.00 0.00 0.00 69 1022.0
20260503195527 59 172 4.0 7.0 0.00 0.00 0.00 68 1022.0
20260503195051 59 148 4.0 8.0 0.00 0.00 0.00 65 1021.9
20260503194536 59 162 5.0 9.0 0.00 0.00 0.00 64 1021.9
20260503194058 59 172 5.0 9.0 0.00 0.00 0.00 63 1021.9
20260503193540 59 150 4.0 8.0 0.00 0.00 0.00 63 1021.8
20260503193043 60 136 4.0 9.0 0.00 0.00 0.00 63 1021.8
20260503192546 60 172 4.0 9.0 0.00 0.00 0.00 62 1021.9
20260503192029 60 167 4.0 9.0 0.00 0.00 0.00 59 1021.9
20260503191531 60 176 5.0 9.0 0.00 0.00 0.00 60 1021.9
20260503191034 60 171 4.0 9.0 0.00 0.00 0.00 60 1021.9
20260503190535 60 161 6.0 8.0 0.00 0.00 0.00 60 1022.0
20260503190058 60 198 4.0 10.0 0.00 0.00 0.00 61 1021.9
20260503185540 60 163 6.0 10.0 0.00 0.00 0.00 60 1022.0
20260503185043 60 169 5.0 9.0 0.00 0.00 0.00 61 1022.1
20260503184544 61 171 5.0 8.0 0.00 0.00 0.00 62 1022.2
20260503184108 61 179 4.0 8.0 0.00 0.00 0.00 61 1022.3
20260503183531 61 206 6.0 8.0 0.00 0.00 0.00 62 1022.4
20260503183033 61 231 4.0 8.0 0.00 0.00 0.00 61 1022.5
20260503182538 60 160 4.0 8.0 0.00 0.00 0.00 61 1022.5
20260503182039 60 183 5.0 10.0 0.00 0.00 0.00 61 1022.6
20260503181541 60 167 5.0 10.0 0.00 0.00 0.00 61 1022.6
20260503181027 60 178 4.0 9.0 0.00 0.00 0.00 62 1022.6
20260503180551 60 191 5.0 9.0 0.00 0.00 0.00 61 1022.6
20260503180032 60 170 5.0 9.0 0.00 0.00 0.00 61 1022.7
20260503175533 60 162 5.0 7.0 0.00 0.00 0.00 61 1022.7
20260503175033 60 197 3.0 9.0 0.00 0.00 0.00 61 1022.7
20260503174533 60 146 6.0 10.0 0.00 0.00 0.00 61 1022.7
20260503174035 60 191 5.0 10.0 0.00 0.00 0.00 61 1022.7
20260503173533 59 176 4.0 9.0 0.00 0.00 0.00 60 1022.7
20260503173036 60 156 4.0 9.0 0.00 0.00 0.00 60 1022.7
20260503172543 60 191 5.0 9.0 0.00 0.00 0.00 60 1022.7
20260503172046 59 190 5.0 10.0 0.00 0.00 0.00 61 1022.8
20260503171527 60 177 6.0 10.0 0.00 0.00 0.00 60 1022.8
20260503171050 59 201 8.0 10.0 0.00 0.00 0.00 60 1022.8
20260503170532 59 164 6.0 9.0 0.00 0.00 0.00 60 1022.9
20260503160104 59 115 2.0 7.0 0.00 0.00 0.00 56 1024.2
20260503150604 56 86 5.0 8.0 0.00 0.00 0.00 60 1024.9
20260503131036 49 191 4.0 13.0 0.00 0.00 0.00 78 1026.0
20260503130539 48 142 9.0 13.0 0.00 0.00 0.00 78 1026.1
20260503110534 45 150 6.0 9.0 0.00 0.00 0.00 79 1025.1
20260503081539 44 176 5.0 9.0 0.00 0.00 0.00 82 1024.5
20260503081103 44 177 4.0 8.0 0.00 0.00 0.00 82 1024.5
20260503080544 44 193 4.0 8.0 0.00 0.00 0.00 82 1024.5
20260503072525 45 188 3.0 7.0 0.00 0.00 0.00 82 1024.6
20260503072050 45 199 4.0 7.0 0.00 0.00 0.00 83 1024.6
20260503071536 45 189 4.0 6.0 0.00 0.00 0.00 83 1024.5
20260503071039 45 175 3.0 7.0 0.00 0.00 0.00 83 1024.7
20260503070541 45 152 4.0 9.0 0.00 0.43 0.00 83 1024.6
20260503055032 46 192 5.0 8.0 0.00 1.85 0.00 85 1025.0
20260503054536 46 191 5.0 8.0 0.00 1.85 0.00 85 1025.2
20260503054039 46 193 5.0 8.0 0.00 1.85 0.00 85 1025.2
20260503053603 47 179 3.0 7.0 0.00 1.85 0.00 85 1025.2
20260503053026 47 205 5.0 9.0 0.00 1.85 0.00 85 1025.2
20260503052529 47 202 6.0 9.0 0.00 1.85 0.00 84 1025.2
20260503052037 47 203 6.0 8.0 0.00 1.85 0.00 85 1025.3
20260503051543 47 186 5.0 6.0 0.00 1.85 0.00 84 1025.4
20260503051045 47 188 4.0 8.0 0.00 1.85 0.00 84 1025.4
20260503050528 47 186 5.0 8.0 0.00 3.23 0.00 84 1025.4
20260503050035 47 172 4.0 6.0 0.00 3.23 0.00 84 1025.3
20260503045541 47 188 3.0 7.0 0.00 3.23 0.00 84 1025.4
20260503045027 48 167 3.0 8.0 0.00 3.23 0.00 84 1025.6
20260503044529 48 158 4.0 8.0 0.00 3.23 0.00 84 1025.6
20260503044033 48 151 3.0 5.0 0.00 3.23 0.00 85 1025.5
20260503043534 48 148 3.0 5.0 0.00 3.23 0.00 85 1025.6
20260503043035 48 188 2.0 6.0 0.00 3.23 0.00 84 1025.6
20260503042557 48 161 2.0 6.0 0.00 3.23 0.00 84 1025.5
20260503042040 48 162 3.0 6.0 0.00 3.23 0.00 83 1025.5
20260503041528 48 174 3.0 8.0 0.00 3.23 0.00 83 1025.5
20260503041051 49 195 4.0 8.0 0.00 3.23 0.00 83 1025.5
20260503040534 49 179 4.0 11.0 0.00 4.33 0.00 83 1025.5
20260503040041 49 157 5.0 11.0 0.00 4.33 0.00 82 1025.5
20260503035603 49 164 6.0 11.0 0.00 4.33 0.00 82 1025.4
20260503035045 49 184 5.0 9.0 0.00 4.33 0.00 82 1025.5
20260503034530 49 181 4.0 9.0 0.00 4.33 0.00 82 1025.5
20260503034035 49 187 4.0 9.0 0.00 4.33 0.00 82 1025.5
20260503033539 49 197 5.0 12.0 0.00 4.33 0.00 82 1025.5
20260503033103 49 187 7.0 12.0 0.00 4.33 0.00 82 1025.4
20260503032545 49 182 6.0 13.0 0.00 4.33 0.00 81 1025.4
20260503032029 49 172 7.0 13.0 0.00 4.33 0.00 81 1025.5
20260503031533 49 176 4.0 17.0 0.00 4.33 0.00 81 1025.5
20260503031035 50 165 8.0 17.0 0.00 4.33 0.00 82 1025.4
20260503030556 50 171 6.0 13.0 0.00 7.09 1.10 83 1025.5
20260503030038 50 155 5.0 13.0 0.00 7.09 1.10 83 1025.4
20260503025543 50 169 6.0 12.0 0.00 7.09 1.10 83 1025.5
20260503025028 50 163 6.0 12.0 0.00 7.09 1.10 84 1025.7
20260503024532 50 191 7.0 14.0 0.00 7.09 1.10 84 1025.7
20260503024034 50 146 7.0 14.0 0.00 7.09 1.10 84 1025.5
20260503023536 51 179 7.0 13.0 0.00 7.09 1.10 84 1025.6
20260503023038 51 165 7.0 12.0 0.00 7.09 1.10 84 1025.5
20260503022602 51 172 7.0 13.0 0.00 7.09 1.10 85 1025.4
20260503022026 51 184 6.0 14.0 0.00 7.09 1.10 84 1025.3
20260503021530 51 173 7.0 16.0 0.00 7.09 1.10 85 1025.3
20260503021032 52 171 8.0 18.0 0.00 7.09 1.10 86 1025.3
20260503020534 52 198 9.0 18.0 0.00 1.21 1.10 87 1025.3
20260503020040 52 203 8.0 15.0 0.00 1.21 1.10 88 1025.3
20260503015604 53 188 9.0 17.0 0.00 1.21 1.10 90 1025.2
20260503015047 53 170 10.0 21.0 0.00 1.21 1.10 91 1025.0
20260503014549 54 201 10.0 21.0 0.00 1.21 1.10 91 1024.9
20260503014035 55 187 10.0 14.0 0.00 1.21 1.10 91 1024.8
20260503013541 55 192 10.0 14.0 0.00 1.21 1.10 91 1024.8
20260503013042 55 191 7.0 13.0 0.00 1.21 1.10 90 1024.8
20260503012547 55 191 9.0 16.0 0.00 1.21 1.10 90 1024.7
20260503011550 55 179 11.0 18.0 0.00 1.21 1.10 90 1024.7
20260503011031 55 186 7.0 15.0 0.00 1.21 1.10 90 1024.7
20260503010536 56 160 8.0 15.0 0.00 1.21 1.10 90 1024.5
20260503010043 56 177 6.0 13.0 0.00 1.21 1.10 89 1024.5
20260503005527 56 188 9.0 14.0 0.00 1.21 1.10 88 1024.4
20260503005033 56 160 7.0 12.0 0.00 1.21 1.10 88 1024.4